Logan, UT

2:59 AM MST on November 14, 2019 (GMT -0700)
Logan-Cache

Weather History for KLGU - August, 2019

Change the Weather History Date:

Sunday, August 4, 2019

  Actual Average Record
Temperature  
Mean Temperature 75 °F -  
Max Temperature 95 °F 89 °F 99 °F (1964)
Min Temperature 57 °F 54 °F 35 °F (1980)
Cooling Degree Days 10    
Growing Degree Days 25 (Base 50)    
Moisture  
Dew Point 49 °F    
Average Humidity 43    
Maximum Humidity 81    
Minimum Humidity 15    
Precipitation  
Precipitation 0.00 in - - ()
Sea Level Pressure  
Sea Level Pressure 29.92 in    
Wind  
Wind Speed 5 mph (NNW)    
Max Wind Speed 17 mph    
Max Gust Speed -    
Visibility 10 miles    
Events      
Averages and records for this station are not official NWS values.
T = Trace of Precipitation, MM = Missing Value Source: NWS Daily Summary

Daily Weather History Graph

Daily Weather History Graph

Search for Another Location

Airport or City:

Astronomy

Aug. 04, 2019 Rise Set
Actual Time 6:24 AM MDT 8:42 PM MDT
Civil Twilight 5:53 AM MDT 9:13 PM MDT
Nautical Twilight 5:14 AM MDT 9:51 PM MDT
Astronomical Twilight 4:32 AM MDT 10:33 PM MDT
Moon 10:37 AM MDT (8/4) 11:19 PM MDT (8/4)
Length of Visible Light 15h 19m
Length of Day
14h 17m
Waxing Crescent, 18% of the Moon is Illuminated
Aug 4
Waxing Crescent
Aug 7
First Quarter
Aug 15
Full
Aug 23
Last Quarter
Aug 30
New

Hourly Weather History & Observations

Time (MDT) Temp. Heat Index Dew Point Humidity Pressure Visibility Wind Dir Wind Speed Gust Speed Precip Events Conditions
12:51 AM 68.0 °F - 50.0 °F 52% 29.94 in 10.0 mi East 8.1 mph - N/A   Clear
1:51 AM 70.0 °F - 50.0 °F 49% 29.92 in 10.0 mi Calm Calm - N/A   Clear
2:51 AM 61.0 °F - 51.1 °F 70% 29.94 in 10.0 mi North 6.9 mph - N/A   Clear
3:51 AM 57.9 °F - 52.0 °F 81% 29.94 in 10.0 mi NNE 3.5 mph - N/A   Clear
4:51 AM 60.1 °F - 51.1 °F 72% 29.94 in 10.0 mi NW 6.9 mph - N/A   Clear
5:51 AM 59.0 °F - 51.1 °F 75% 29.95 in 10.0 mi Calm Calm - N/A   Clear
6:51 AM 59.0 °F - 51.1 °F 75% 29.97 in 10.0 mi Calm Calm - N/A   Clear
7:51 AM 62.1 °F - 53.1 °F 72% 29.97 in 10.0 mi Calm Calm - N/A   Clear
8:51 AM 66.9 °F - 51.1 °F 57% 29.98 in 10.0 mi North 5.8 mph - N/A   Clear
9:51 AM 75.0 °F - 52.0 °F 44% 29.96 in 10.0 mi NNE 3.5 mph - N/A   Clear
10:51 AM 79.0 °F - 52.0 °F 39% 29.95 in 10.0 mi Variable 4.6 mph - N/A   Clear
11:51 AM 82.9 °F 81.8 °F 53.1 °F 36% 29.94 in 10.0 mi North 6.9 mph - N/A   Clear
12:51 PM 88.0 °F - 50.0 °F 27% 29.93 in 10.0 mi NNW 4.6 mph - N/A   Clear
1:51 PM 90.0 °F - 48.9 °F 24% 29.90 in 10.0 mi WSW 6.9 mph - N/A   Clear
2:51 PM 91.9 °F - 48.9 °F 23% 29.90 in 10.0 mi Variable 5.8 mph - N/A   Clear
3:51 PM 93.0 °F - 48.0 °F 21% 29.88 in 10.0 mi South 6.9 mph - N/A   Clear
4:51 PM 93.9 °F - 42.1 °F 17% 29.86 in 10.0 mi Variable 5.8 mph - N/A   Clear
5:51 PM 93.9 °F - 39.9 °F 15% 29.85 in 10.0 mi WSW 4.6 mph - N/A   Clear
6:51 PM 93.9 °F - 45.0 °F 18% 29.84 in 10.0 mi SSW 5.8 mph - N/A   Clear
7:51 PM 93.0 °F - 42.1 °F 17% 29.84 in 10.0 mi South 6.9 mph - N/A   Clear
8:51 PM 77.0 °F - 48.9 °F 37% 29.89 in 10.0 mi NNW 11.5 mph - N/A   Clear
9:51 PM 73.9 °F - 46.9 °F 38% 29.91 in 10.0 mi North 17.3 mph - N/A   Clear
10:51 PM 72.0 °F - 48.0 °F 43% 29.93 in 10.0 mi WSW 6.9 mph - N/A   Clear
11:51 PM 77.0 °F - 48.0 °F 36% 30.00 in 10.0 mi ESE 10.4 mph - N/A   Mostly Cloudy